This is the latest recevied weather packets stored in our database for station/object VE6CWS-7. If no packets are shown the sender has not sent any weather packets the latest 10 day(s).
| Time | Temp. | Humidity | Pressure | Rain* | Wind** | Luminosity | Snow |
|---|---|---|---|---|---|---|---|
| 1777980645 | -1.67° C | 81% | 1020.9 hPa | 0 mm | - | - | - |
| 1777979752 | -1.67° C | 80% | 1021 hPa | 0 mm | - | - | - |
| 1777978901 | -1.11° C | 79% | 1020.8 hPa | 0 mm | - | - | - |
| 1777977946 | -1.11° C | 77% | 1020.7 hPa | 0 mm | - | - | - |
| 1777977057 | -0.56° C | 75% | 1020.5 hPa | 0 mm | - | - | - |
| 1777976140 | -0.56° C | 74% | 1020.5 hPa | 0 mm | - | - | - |
| 1777975298 | 0° C | 73% | 1020.4 hPa | 0 mm | - | - | - |
| 1777974339 | 0.56° C | 72% | 1020.4 hPa | 0 mm | - | - | - |
| 1777973436 | 0.56° C | 71% | 1020.3 hPa | 0 mm | - | - | - |
| 1777972550 | 1.11° C | 70% | 1020.4 hPa | 0 mm | - | - | - |
| 1777971693 | 0.56° C | 71% | 1020.4 hPa | 0 mm | - | - | - |
| 1777970755 | 0.56° C | 71% | 1020.4 hPa | 0 mm | - | - | - |
| 1777969855 | 0.56° C | 70% | 1020.5 hPa | 0 mm | - | - | - |
| 1777968959 | 1.11° C | 69% | 1020.4 hPa | 0 mm | - | - | - |
| 1777968109 | 1.11° C | 67% | 1020.3 hPa | 0 mm | - | - | - |
| 1777967167 | 1.11° C | 68% | 1020.3 hPa | 0 mm | - | - | - |
| 1777966253 | 1.11° C | 68% | 1020.1 hPa | 0 mm | - | - | - |
| 1777965346 | 1.67° C | 66% | 1020.1 hPa | 0 mm | - | - | - |
| 1777964505 | 2.22° C | 64% | 1019.9 hPa | 0 mm | - | - | - |
| 1777963550 | 1.67° C | 64% | 1019.8 hPa | 0 mm | - | - | - |
| 1777962650 | 2.22° C | 61% | 1019.7 hPa | 0 mm | - | - | - |
| 1777961769 | 2.78° C | 59% | 1019.5 hPa | 0 mm | - | - | - |
| 1777960901 | 2.78° C | 59% | 1019.2 hPa | 0 mm | - | - | - |
| 1777959956 | 2.78° C | 59% | 1019.1 hPa | 0 mm | - | - | - |
| 1777959040 | 3.33° C | 58% | 1019 hPa | 0 mm | - | - | - |
* Rain latest hour (hover to see other rain measurements)
** Current wind speed in m/s (hover to see current wind gust speed)